Location: Allen Lane School
(37.8198°N, 89.7382°W)
Time: 20:21:55
(UTC+00:00)

Meteor 1-14 Rocket - Pass Details

Date: 08 December 2021
Orbit: 834 x 918 km, 81.3° (Epoch: 16 January)

Event Time Altitude Azimuth Distance (km) Brightness Sun altitude
Rises 23:20:03 0° 354° (N) 3,512 7.2 -8.0°
Reaches altitude 10° 23:22:32 10° 358° (N) 2,580 6.5 -8.5°
Maximum altitude 23:28:23 64° 79° (E) 1,001 4.3 -9.5°
Drops below altitude 10° 23:34:17 10° 161° (SSE) 2,599 6.8 -10.6°
Sets 23:36:47 0° 164° (SSE) 3,540 7.5 -11.1°
